Flag for Indonesia Weather past 2 weeks in Manado, North Sulawesi, Indonesia

Now
75 °F

Passing clouds.


Feels Like: 74 °F
Forecast: 73 / 86 °F
Wind: No wind

Location: Menado / Dr. Sam Ratulangi

Current Time: Jan 27, 2015 at 4:59:37 AM

Latest Report: Jan 27, 2015 at 2:00 AM


Visibility: 5 mi

Pressure: 29.83 "Hg

Humidity: 94%

Dew point: 73 °F

Location of ManadoLocation

Historic Weather in Manado — Graph

°F

Manado temperature yesterday

Maximum temperature yesterday: 88 °F (at 12:00 PM)
Minimum temperature yesterday: 73 °F (at 2:00 AM)
Average temperature yesterday: 81 °F

Past Weeks' High & Low Weather Summary

 TemperatureHumidityPressure
High88 °F (Jan 12, 12:00 PM)100% (Jan 12, 3:00 AM)30.01 "Hg (Jan 12, 3:00 AM)
Low72 °F (Jan 12, 6:00 AM)22% (Jan 18, 10:30 PM)29.53 "Hg (Jan 18, 6:00 PM)
Average80 °F85%29.87 "Hg
* Reported Jan 12 2:00 AM — Jan 27 2:00 AM, Manado, Weather by CustomWeather, © 2014

Note: Actual official high and low records may vary slightly from our data, if they occured in-between our weather recording intervals... More about our weather records

Advertising

Manado weather history for previous 24 hours

 ConditionsComfort  
Time TempWeatherWind HumidityBarometerVisibility
2:00 AM
Jan 27
75 °FPassing clouds.No wind94%29.83 "Hg5 mi
12:30 AM75 °FPassing clouds.2 mph94%29.86 "Hg5 mi
11:30 PM
Jan 26
75 °FPassing clouds.1 mph94%29.89 "Hg6 mi
11:00 PM77 °FPassing clouds.1 mph94%29.89 "Hg6 mi
10:30 PM77 °FPassing clouds.No wind94%29.89 "Hg6 mi
10:00 PM77 °FPassing clouds.1 mph94%29.89 "Hg6 mi
9:30 PM77 °FPassing clouds.2 mph94%29.89 "Hg6 mi
9:00 PM77 °FPassing clouds.3 mph94%29.89 "Hg6 mi
8:30 PM77 °FPassing clouds.1 mph94%29.86 "Hg6 mi
8:00 PM77 °FPassing clouds.No wind94%29.86 "HgN/A
7:30 PM77 °FPassing clouds.1 mph94%29.86 "HgN/A
7:00 PM79 °FPassing clouds.3 mph89%29.83 "HgN/A
6:30 PM81 °FPassing clouds.3 mph79%29.83 "HgN/A
6:00 PM81 °FPassing clouds.5 mph84%29.80 "HgN/A
5:30 PM82 °FPassing clouds.6 mph74%29.80 "HgN/A
5:00 PM84 °FPassing clouds.6 mph74%29.80 "HgN/A
4:30 PM84 °FPassing clouds.7 mph70%29.80 "HgN/A
4:00 PM86 °FPassing clouds.7 mph70%29.80 "HgN/A
3:30 PM86 °FPassing clouds.7 mph70%29.77 "HgN/A
3:00 PM88 °FPassing clouds.7 mph66%29.77 "HgN/A
2:30 PM88 °FScattered clouds.8 mph62%29.80 "HgN/A
2:00 PM88 °FScattered clouds.N/A66%29.80 "HgN/A
1:30 PM88 °FScattered clouds.8 mph66%29.83 "HgN/A
1:00 PM88 °FScattered clouds.9 mph62%29.83 "HgN/A
12:30 PM88 °FScattered clouds.8 mph62%29.83 "HgN/A
12:00 PM88 °FScattered clouds.8 mph59%29.86 "HgN/A
11:00 AM86 °FScattered clouds.6 mph62%29.89 "HgN/A
10:00 AM86 °FPassing clouds.7 mph66%29.89 "HgN/A
9:30 AM86 °FPassing clouds.6 mph62%29.92 "HgN/A
9:00 AM84 °FPassing clouds.9 mph70%29.92 "HgN/A
8:30 AM84 °FPassing clouds.3 mph70%29.92 "HgN/A
8:00 AM82 °FPassing clouds.2 mph74%29.92 "HgN/A
7:00 AM79 °FPassing clouds.3 mph84%29.92 "HgN/A
6:30 AM75 °FPassing clouds.3 mph94%29.89 "HgN/A
6:00 AM73 °FPassing clouds.3 mph94%29.89 "HgN/A
5:30 AM73 °FPassing clouds.1 mph100%29.89 "Hg6 mi
5:00 AM75 °FPassing clouds.2 mph94%29.89 "Hg6 mi
Weather by CustomWeather, © 2014

See weather overviewHow to use our weather pages